[[{"header":{"parameterUnit":"m.s-1","parameterCategory":1,"la1":30.2991,"la2":30.254,"lo1":-89.0895,"lo2":-89.0444,"dy":0.0017,"dx":0.0017,"nx":28,"ny":28,"refTime":"2025-02-05T03:00:00:Z","depth":0,"parameterNumber":2,"parameterNumberName":"U-component_of_WINDS"},"data":[0,0,0,0,0,0,0,0,0,0,0,0,0,0,0,0,0,0,0,0,0,0,0,0,0,0,0,0,0,0,0,0,0,0,0,0,0,0,0,0,0,0,0,0,0,0,0,0,0,0,0,0,0,0,0,0,0,0,0.0215,0.0216,0,0.0294,0.0295,0.0296,0.0344,0.0344,0.0344,0.0345,0.0425,0.0427,0.0429,0,0,0,0,0,0,0,0,0,0,0,0,0,0.0104,0.0106,0.0215,0.0216,0.0217,0.0294,0.0295,0.0297,0.0344,0.0344,0.0345,0.0345,0.0425,0.0427,0.0429,0,0,0,0,0,0,0,0,0,0,0,0,0,0.0165,0.0107,0.0215,0.025,0.0254,0.0294,0.0295,0.0297,0.0344,0.0344,0.0345,0.0345,0.0424,0.0427,0.043,0.0441,0,0,0.0439,0.044,0,0,0,0,0,0,0,0,0.0161,0.0169,0.0244,0.0248,0.0252,0.031,0.0286,0.0345,0.0344,0.031,0.0345,0.0345,0.0387,0.0393,0.0407,0.0445,0.0448,0.0439,0.0441,0.0442,0.0443,0,0,0,0,0,0,0,0.0157,0.0166,0.0247,0.0245,0.025,0.0262,0.0271,0.0297,0.0345,0.0313,0.0316,0.0325,0.0389,0.0404,0.0409,0.0449,0.0439,0.0441,0.0443,0.0444,0.0499,0.0499,0,0,0,0,0,0,0.0147,0.0162,0.0244,0.0249,0.0207,0.0263,0.0274,0.0291,0.0345,0.0354,0.0325,0.0327,0.0399,0.0406,0.0412,0.0428,0.0442,0.0445,0.0446,0.0499,0.0499,0.0499,0,0,0,0,0,0,0.0145,0.0154,0.0241,0.0206,0.0218,0.0265,0.0284,0.0292,0.0307,0.0354,0.0363,0.0331,0.0399,0.0408,0.0433,0.0431,0.0446,0.0449,0.05,0.0499,0.0499,0.046,0,0,0,0,0,0,0.0141,0.0153,0.0158,0.0206,0.022,0.0261,0.0284,0.0294,0.0312,0.0316,0.0363,0.0371,0.04,0.0428,0.0436,0.0436,0.0451,0.05,0.05,0.0499,0.0461,0.0458,0.0455,0,0,0,0,0,0.0137,0.0144,0.0158,0.0168,0.0227,0.0261,0.0269,0.0302,0.0312,0.0317,0.0347,0.0369,0.043,0.0431,0.0439,0.044,0.05,0.05,0.0499,0.0463,0.0459,0.0455,0,0,0,0,0,0,0.0094,0.0151,0.0167,0.019,0.022,0.0269,0.0276,0.0297,0.0325,0.0328,0.0368,0.0379,0.0399,0.0423,0.0422,0.0453,0.0468,0.0469,0.0437,0.0434,0.0431,0.0424,0.0453,0,0,0,0,0,0.0087,0.011,0.0158,0.0173,0.0188,0.0229,0.0245,0.0268,0.0301,0.0314,0.0347,0.0377,0.0404,0.042,0.0447,0.0465,0.0476,0.047,0.0467,0.0464,0.0464,0.0475,0.0472,0.0497,0.0497,0.0497,0,0,0.0073,0.0107,0.0119,0.0166,0.0192,0.0214,0.024,0.0262,0.0279,0.0318,0.0343,0.0368,0.0405,0.0427,0.0438,0.0446,0.046,0.0463,0.046,0.0462,0.0474,0.0471,0.0469,0.0496,0.0496,0.0496,0,0,0.0059,0.0087,0.0103,0.0128,0.0168,0.0195,0.0198,0.0244,0.0262,0.0288,0.0317,0.0338,0.0382,0.0407,0.0426,0.042,0.0441,0.0428,0.0411,0.0421,0.0419,0.0418,0.0415,0.0413,0.0428,0.0428,0.0428,0,0.0037,0.0071,0.0108,0.0128,0.0148,0.0184,0.0199,0.0223,0.0268,0.0281,0.029,0.0346,0.0374,0.0401,0.0399,0.0414,0.0418,0.0423,0.0417,0.0415,0.0415,0.0412,0.0411,0.0426,0.0426,0.0426,0.0427,0,0.0041,0.0065,0.0073,0.0116,0.0136,0.0154,0.0193,0.0209,0.023,0.0256,0.0282,0.0317,0.0351,0.0359,0.038,0.0389,0.0393,0.0409,0.0424,0.041,0.0408,0.0408,0.0423,0.0424,0.0425,0.0425,0,0,0.0002,0.0065,0.0067,0.0087,0.0133,0.0152,0.0171,0.0204,0.0217,0.0247,0.0264,0.03,0.0315,0.0335,0.036,0.0369,0.0361,0.0383,0.0385,0.0377,0.0372,0.0359,0.0358,0.0375,0.0375,0.0375,0.0368,0,-0.0006,0.0031,0.0064,0.0088,0.011,0.0144,0.0161,0.0191,0.0215,0.0237,0.0265,0.029,0.0307,0.032,0.033,0.036,0.036,0.0361,0.0391,0.0391,0.038,0.0357,0.0344,0.0336,0.0368,0.0368,0.0368,0,-0.001,0.0018,0.0045,0.0088,0.0098,0.0112,0.0145,0.0166,0.02,0.0217,0.024,0.0266,0.0287,0.0301,0.033,0.033,0.0344,0.036,0.0361,0.0364,0.0378,0.0359,0.0334,0.0333,0.0368,0.0368,0.0368,0,-0.0043,0.0002,0.0024,0.004,0.0091,0.01,0.0122,0.0156,0.0174,0.0202,0.0214,0.0244,0.0261,0.0284,0.0317,0.0324,0.0343,0.0359,0.0357,0.0356,0.0359,0.0358,0.0335,0.0369,0.0369,0.0369,0.0369,0,-0.0056,-0.0041,0.001,0.0023,0.004,0.0078,0.0094,0.0118,0.0148,0.0167,0.0199,0.0215,0.0258,0.0279,0.0305,0.0325,0.0332,0.0347,0.0353,0.0343,0.0341,0.0353,0.0354,0.0369,0.0369,0.0369,0.0369,0,-0.0089,-0.0054,-0.0029,0.0017,0.0029,0.004,0.0079,0.0093,0.0119,0.0142,0.0149,0.0191,0.0217,0.0253,0.029,0.0308,0.0324,0.0335,0.0313,0.0316,0.0312,0.0312,0.0295,0.0294,0.0329,0.0329,0.0328,0,-0.01,-0.0088,-0.0041,-0.0026,-0.0006,0.0017,0.0035,0.0072,0.009,0.0129,0.0138,0.0167,0.0192,0.0233,0.0266,0.0295,0.0306,0.0298,0.0311,0.03,0.0305,0.0304,0.0305,0.0295,0.0294,0.0294,0.0294,0,-0.0123,-0.0107,-0.0082,-0.0051,-0.0031,-0.0005,0.0023,0.0033,0.0076,0.0093,0.0121,0.014,0.0178,0.0207,0.024,0.0262,0.0284,0.0289,0.029,0.028,0.0266,0.0273,0.0303,0.029,0.029,0.029,0.029,0.0291,-0.0146,-0.0134,-0.0099,-0.0073,-0.0049,-0.0024,-0.0009,0.0019,0.0043,0.0077,0.0098,0.0124,0.0157,0.0204,0.0225,0.0246,0.0255,0.0256,0.0257,0.0256,0.0252,0.0263,0.0252,0.0252,0.0252,0.0252,0.0253,0,-0.0169,-0.0145,-0.0121,-0.0084,-0.0063,-0.0043,-0.0012,0.0004,0.0027,0.0056,0.008,0.0111,0.0138,0.0174,0.0203,0.0213,0.0224,0.022,0.0219,0.0223,0.0243,0.0239,0.021,0.021,0.021,0.021,0.021,0.021,-0.0178,-0.0157,-0.0137,-0.0103,-0.0079,-0.0053,-0.0037,-0.0015,0.0009,0.0042,0.0065,0.0088,0.0119,0.0151,0.0177,0.0187,0.0196,0.0188,0.02,0.0218,0.0222,0.0226,0.0222,0.019,0.019,0.0179,0.0179,0.0179]},{"header":{"parameterUnit":"m.s-1","parameterCategory":1,"la1":30.2991,"la2":30.254,"lo1":-89.0895,"lo2":-89.0444,"dy":0.0017,"dx":0.0017,"nx":28,"ny":28,"refTime":"2025-02-05T03:00:00:Z","depth":0,"parameterNumber":3,"parameterNumberName":"V-component_of_WINDS"},"data":[0,0,0,0,0,0,0,0,0,0,0,0,0,0,0,0,0,0,0,0,0,0,0,0,0,0,0,0,0,0,0,0,0,0,0,0,0,0,0,0,0,0,0,0,0,0,0,0,0,0,0,0,0,0,0,0,0,0,0.9649,0.9648,0,0.9571,0.957,0.9569,0.9546,0.9546,0.9547,0.9547,0.9463,0.9461,0.9458,0,0,0,0,0,0,0,0,0,0,0,0,0,0.9775,0.9773,0.9649,0.9648,0.9647,0.9571,0.957,0.9569,0.9546,0.9546,0.9547,0.9547,0.9464,0.9461,0.9458,0,0,0,0,0,0,0,0,0,0,0,0,0,0.9711,0.9772,0.965,0.9627,0.9624,0.9571,0.957,0.9569,0.9546,0.9546,0.9547,0.9548,0.9465,0.9461,0.9458,0.9421,0,0,0.9446,0.9444,0,0,0,0,0,0,0,0,0.9715,0.9706,0.9631,0.9628,0.9625,0.9569,0.9584,0.9519,0.9546,0.9575,0.9547,0.9548,0.9498,0.9491,0.9475,0.9417,0.9413,0.9445,0.9443,0.9441,0.944,0,0,0,0,0,0,0,0.9719,0.971,0.9618,0.963,0.9626,0.9619,0.9611,0.9571,0.9534,0.9573,0.9571,0.9562,0.9496,0.9479,0.9473,0.9412,0.9445,0.9442,0.9439,0.9438,0.932,0.9319,0,0,0,0,0,0,0.9728,0.9713,0.9621,0.9616,0.9672,0.9617,0.9607,0.9586,0.9534,0.9527,0.9562,0.9561,0.9485,0.9478,0.947,0.9423,0.9441,0.9438,0.9435,0.932,0.9319,0.9319,0,0,0,0,0,0,0.9731,0.972,0.9624,0.9664,0.9651,0.9614,0.9591,0.9584,0.9567,0.9526,0.9519,0.9551,0.9485,0.9475,0.9433,0.942,0.9436,0.9432,0.9321,0.932,0.9319,0.933,0,0,0,0,0,0,0.9734,0.9721,0.9708,0.9664,0.9649,0.959,0.959,0.9582,0.9561,0.956,0.9514,0.9507,0.9485,0.9439,0.943,0.9415,0.9429,0.9322,0.9321,0.9319,0.9331,0.933,0.9329,0,0,0,0,0,0.9739,0.9713,0.9707,0.9696,0.9632,0.9589,0.9581,0.9557,0.956,0.9545,0.9519,0.9509,0.9423,0.9435,0.9424,0.9408,0.9323,0.9321,0.9319,0.9332,0.933,0.9329,0,0,0,0,0,0,0.9755,0.9707,0.97,0.9659,0.9629,0.9585,0.9567,0.9556,0.9523,0.9523,0.9494,0.9484,0.9444,0.9422,0.9436,0.937,0.9373,0.9369,0.9386,0.9384,0.9383,0.9389,0.9426,0,0,0,0,0,0.9754,0.9724,0.9684,0.9652,0.9637,0.9605,0.9585,0.9569,0.9536,0.9523,0.9493,0.946,0.9426,0.9403,0.937,0.9328,0.9317,0.9311,0.931,0.9309,0.9306,0.9282,0.9279,0.9313,0.9313,0.9313,0,0,0.9751,0.9721,0.9704,0.9654,0.9629,0.9598,0.9594,0.9561,0.9537,0.9517,0.9476,0.9453,0.9414,0.9372,0.9352,0.9352,0.9294,0.9307,0.9307,0.9304,0.928,0.9276,0.9274,0.9312,0.9312,0.9312,0,0,0.973,0.9705,0.9676,0.9651,0.9612,0.9591,0.9584,0.9542,0.9527,0.9485,0.9469,0.944,0.9382,0.9355,0.9333,0.9302,0.9291,0.9292,0.9286,0.9262,0.926,0.9257,0.9246,0.9242,0.9289,0.9289,0.9289,0,0.9731,0.9685,0.9662,0.963,0.9608,0.959,0.9559,0.9535,0.9488,0.9472,0.9474,0.94,0.9372,0.9324,0.9316,0.93,0.929,0.9297,0.9262,0.9259,0.9257,0.9246,0.9241,0.9289,0.9289,0.9289,0.9289,0,0.9688,0.9656,0.9637,0.9593,0.9569,0.9538,0.9509,0.9487,0.9473,0.9451,0.9409,0.9375,0.9335,0.9322,0.9308,0.9271,0.9272,0.9268,0.9271,0.9254,0.9243,0.9239,0.929,0.9289,0.9289,0.9289,0,0,0.9675,0.9619,0.9612,0.9592,0.9548,0.9522,0.949,0.9451,0.9433,0.9401,0.9372,0.9323,0.932,0.9295,0.9278,0.9258,0.9235,0.9256,0.9255,0.9253,0.9192,0.9195,0.9191,0.9228,0.9227,0.9226,0.9195,0,0.9649,0.9592,0.957,0.9523,0.9493,0.9475,0.9447,0.9416,0.9395,0.9365,0.9341,0.9307,0.9305,0.929,0.9269,0.9242,0.9222,0.9244,0.92,0.9199,0.9211,0.9185,0.9188,0.9161,0.9191,0.919,0.9189,0,0.961,0.9579,0.953,0.949,0.9477,0.9452,0.9414,0.9387,0.9351,0.9337,0.931,0.9294,0.9259,0.9264,0.9214,0.9229,0.921,0.9194,0.9192,0.9187,0.9193,0.9179,0.9152,0.9148,0.9182,0.9183,0.9183,0,0.9606,0.9551,0.9514,0.9498,0.945,0.9433,0.9412,0.9378,0.9356,0.9323,0.9308,0.9271,0.925,0.9221,0.9195,0.9201,0.9147,0.915,0.9134,0.9134,0.9123,0.9124,0.9092,0.9111,0.9111,0.9111,0.9111,0,0.9579,0.9549,0.9512,0.9489,0.9456,0.943,0.9397,0.9374,0.9344,0.9316,0.9297,0.9271,0.9238,0.9208,0.9187,0.9148,0.9139,0.9126,0.9121,0.9128,0.9129,0.9114,0.9115,0.911,0.911,0.911,0.911,0,0.9568,0.9542,0.9501,0.946,0.9449,0.9425,0.9389,0.9366,0.9344,0.9309,0.9299,0.9264,0.9227,0.9198,0.9149,0.9135,0.9095,0.9089,0.9107,0.9104,0.909,0.9092,0.9047,0.904,0.9064,0.9063,0.9063,0,0.9552,0.9529,0.9486,0.9467,0.9447,0.9415,0.9393,0.9367,0.9344,0.9302,0.9284,0.9246,0.9214,0.9155,0.9125,0.9087,0.908,0.9067,0.9074,0.9082,0.908,0.9082,0.9079,0.9066,0.9066,0.9066,0.9066,0,0.9527,0.9516,0.9485,0.945,0.9424,0.9395,0.9365,0.935,0.9318,0.9293,0.9256,0.9231,0.9182,0.9144,0.9103,0.9081,0.9068,0.9064,0.9058,0.9065,0.9076,0.907,0.9105,0.9065,0.9065,0.9065,0.9065,0.9065,0.9513,0.9492,0.9459,0.9425,0.94,0.9373,0.9349,0.9324,0.9293,0.9252,0.9238,0.9199,0.9164,0.9108,0.9085,0.9054,0.9053,0.9045,0.9043,0.9041,0.9042,0.9082,0.9046,0.9046,0.9046,0.9046,0.9046,0,0.9488,0.9465,0.9435,0.9394,0.9368,0.9359,0.9325,0.9303,0.927,0.9239,0.9208,0.9165,0.9128,0.9095,0.9056,0.9037,0.903,0.9028,0.9029,0.9024,0.9044,0.9053,0.9034,0.9034,0.9034,0.9034,0.9034,0.9034,0.9471,0.9435,0.9419,0.937,0.9347,0.931,0.9292,0.9266,0.9241,0.9194,0.9164,0.9143,0.911,0.9069,0.9035,0.9026,0.9012,0.9011,0.9001,0.9021,0.9022,0.9024,0.9032,0.9009,0.9009,0.8982,0.8982,0.8982]}]]